Starlink 1276

operational
NORAD ID: 45368 Int'l Des: 2020-019 Owner: SPXS Country: US Constellation: starlink
LEOCIRCULARSTARLINK_TYPE

About Starlink 1276

Description loading...

Live Position

Loading 3D Globe...

Upcoming Passes

Altitude History

Altitude vs Time

uPlot chart will show altitude changes over time

Two-Line Element Set

1 45368U 20019J 25258.19710422 .00000452 00000-0 49225-4 0 9993
2 45368 53.0544 234.4367 0001352 85.5926 274.5217 15.06398668303280
Epoch: Sep 15, 2025 • Age: 9 hours

Current Status

Altitude 566.6 km
Velocity 7.58 km/s
Sub-Earth Point -52.99°S, 67.19°W
Launch Date Mar 18, 2020
Age 5.4 years
Type internet

Technical Details

Classification Payload
Mass 260.00 kg
Dry Mass 248.00 kg
Total Mass 260.00 kg
Length 0.20 m
Diameter 2.80 m
Span 9.00 m
Shape Box + pan
Manufacturer SPXS
Bus Type Starlink
Phase Status In Orbit
Owner/State SPXS/US

Large Constellations

Loading constellations...